Find OneWeb SL0287

NORAD ID: 49077 Int'l Des: 2021-075 Owner: ONEWEBN Country: UK Constellation: oneweb operational
LEOCIRCULARPOLARONEWEB_TYPE

实时位置

正在加载3D地球...

关于 OneWeb SL0287

正在加载描述...

即将过境

Passes for default location (London). Set your location on the main map for personalized predictions.

高度历史

Loading altitude history...

两行轨道根数

1 49077U 21075C 26124.12367663 .00000107 00000-0 24255-3 0 9990
2 49077 87.9174 14.6236 0001725 95.4329 264.6999 13.17648716227824
Epoch: May 4, 2026 • Age: 8 hours

当前状态

高度 1200.5 km
速度 7.26 km/s
星下点 48.49°N, 2.96°W
发射日期 Aug 21, 2021
运行时间 4.7 years
类型 internet

技术详情

分类 Payload
质量 148.00 kg
干质量 140.00 kg
总质量 148.00 kg
长度 1.30 m
直径 1.00 m
跨度 5.00 m
形状 Trapezoid+2 pan
制造商 ONEWUS
平台类型 ARROW
阶段状态 In Orbit
所有者/国家 ONEWEBN/UK

Most Searched